Regional Weather Roundup
Issued by NWS Goodland, KS

Home | Current Version | Previous Version | Text Only | Print | Product List | Glossary On
Versions: 1 2 3 4 5 6 7 8 9 10 11 12 13 14 15 16 17 18 19 20 21 22 23 24 25 26 27 28 29 30 31 32 33 34 35 36 37 38 39 40 41 42 43 44 45 46 47 48 49 50
000
ASUS43 KGLD 290208
RWRGLD

GOODLAND FORECAST AREA HOURLY WEATHER ROUNDUP
NATIONAL WEATHER SERVICE GOODLAND KS
800 PM MDT SAT MAY 28 2016

...OFFICIAL OBSERVATIONS...

CITY           SKY/WX    TMP DP  RH WIND       PRES   REMARKS
GOODLAND KS    CLEAR     67  47  48 SW6       30.02R
HILL CITY KS   CLEAR     71  54  54 E3        29.98R
IMPERIAL NEB   PTCLDY    69  55  60 CALM      29.99R
MCCOOK NEB     CLEAR     72  49  44 S3        29.98R
AKRON CO       CLOUDY    62  41  46 W7        30.06R
BURLINGTON CO  CLOUDY    64  50  60 S8        30.05R
LIMON CO       CLOUDY    54  49  83 N7        30.11R
$$

...UNOFFICIAL OBSERVATIONS...

CITY           SKY/WX    TMP DP  RH WIND       PRES   REMARKS
GOVE KS          N/A     70  32  24 MISG        N/A
LENORA KS        N/A     71  32  23 MISG        N/A
SHARON SPRINGS   N/A     66  52  60 CALM        N/A
TRIBUNE KS     CLEAR     68  55  64 E6        30.06R
KIT CARSON CO    N/A     67  52  57 CALM        N/A
YUMA CO          N/A     64  48  57 W9          N/A
$$




USA.gov is the U.S. government's official web portal to all federal, state and local government web resources and services.